Torna al catalogo

SL-12 R/B

AUX MOTOR

AttivoHEO
NORAD 20630·ROCKET BODY·🇷🇺 Russia

Lanciato May 19, 1990 da Baikonur Cosmodrome

Loading…

Prossimi Passaggi (prossime 24 ore)

TLE

AggiornatoSource: Space-Track

Epoca: Sep 14, 2026, 11:22 UTC

1 20630U 90045F   26257.47407226  .00000197  00000-0  40433-3 0  9997
2 20630  65.0802 206.5400 5674076  38.1539 350.8152  4.32104266569872

Traccia SL-12 R/B in tempo reale con AllMySat

Download on the App Store